Regional Weather Roundup
Issued by NWS Sterling, VA

Home | Current Version | Previous Version | Graphics & Text | Print | Product List | Glossary On
Versions: 1 2 3 4 5 6 7 8 9 10 11 12 13 14 15 16 17 18 19 20 21 22 23 24 25 26 27 28 29 30 31 32 33 34 35 36 37 38 39 40 41 42 43 44 45 46 47 48 49 50
000
ASUS41 KLWX 211910
RWRLWX

REGIONAL WEATHER ROUNDUP
NATIONAL WEATHER SERVICE BALTIMORE MD/WASHINGTON DC
200 PM EST SUN DEC 21 2014

Note: "FAIR" indicates few or no clouds below 12,000 feet
with no significant weather and/or obstructions to visibility.
 TC=TEMPERATURE CELSIUS

 * =Non NWS site. Station does not report precipitation (e.g. rain,
    snow, etc.), thunder, or fog.

DCZ001-MDZ009-015-VAZ040>042-051-053>054-212000-
WASHINGTON METRO

CITY           SKY/WX    TMP DP  RH WIND       PRES   REMARKS
WASHINGTON NAT PTSUNNY   44  25  47 N8        30.31F
DULLES         PTSUNNY   40  23  50 VRB5      30.29F
ANDREWS AFB    MOSUNNY   41  24  50 NW6       30.28F
FT BELVOIR     SUNNY     44  24  46 VRB5      30.30F
QUANTICO       SUNNY     42  27  55 E8        30.31F
COLLEGE PARK*  PTSUNNY   41  27  56 NW3       30.30F
LEESBURG*      CLOUDY    39  30  70 N6        30.30F
GAITHERSBURG*  MOSUNNY   37  23  56 NW5       30.32F

$$

MDZ006>007-011-014-212000-
BALTIMORE METRO

CITY           SKY/WX    TMP DP  RH WIND       PRES   REMARKS
BWI AIRPORT    MOSUNNY   40  23  50 SW7       30.29F
MD SCIENCE CTR   N/A     41  22  46 MISG      30.31F
MARTIN STATE   SUNNY     43  28  56 W6        30.31F
ANNAPOLIS      MOSUNNY   39  24  55 NW6       30.30F
FORT MEADE*    SUNNY     37  23  56 NW5       30.32F

$$

MDZ012-015-019>023-212000-
MARYLAND EASTERN SHORE

CITY           SKY/WX    TMP DP  RH WIND       PRES   REMARKS
OCEAN CITY     SUNNY     42  25  50 NW6       30.29F
SALISBURY      SUNNY     43  25  49 NW8       30.30F
BAY BRIDGE AP*   N/A     37  23  56 NW3       30.31F
CAMBRIDGE*     SUNNY     41  27  56 NW5       30.30F
EASTON*        MOSUNNY   41  27  56 NW3       30.34F

$$

MDZ017>025-212000-
SOUTHERN MARYLAND

CITY           SKY/WX    TMP DP  RH WIND       PRES   REMARKS
PATUXENT RIVER MOSUNNY   42  23  46 N8        30.30F
ST INIGOES     SUNNY     41  27  57 SW6       30.30F
LEONARDTOWN*   SUNNY     41  23  48 N3        30.31F

$$

MDZ003>005-212000-
NORTH CENTRAL MARYLAND

CITY           SKY/WX    TMP DP  RH WIND       PRES   REMARKS
FREDERICK*     SUNNY     43  21  42 S6        30.33
HAGERSTOWN APT SUNNY     38  22  52 N3        30.27F
WESTMINSTER*   SUNNY     36  23  60 CALM      30.27F

$$

MDZ501>502-212000-
WESTERN MARYLAND

CITY           SKY/WX    TMP DP  RH WIND       PRES   REMARKS
OAKLAND*       MOSUNNY   32  27  80 CALM      30.15F
CUMBERLAND*    SUNNY     41  27  56 CALM      30.29F

$$

VAZ025>031-212000-
SHENANDOAH VALLEY

CITY           SKY/WX    TMP DP  RH WIND       PRES   REMARKS
WINCHESTER*    SUNNY     41  21  45 CALM      30.26F
FRONT ROYAL*   FAIR      37  27  65 N3        30.25F
LURAY*         FAIR      45  30  57 CALM      30.24F
NEW MARKET*    FAIR      41  26  57 CALM      30.23F
STAUNTON*      SUNNY     42  28  56 NE3       30.24F
WAYNESBORO*    FAIR      41  28  57 E3        30.21F

$$

WVZ021-048>050-054>055-212000-
EASTERN WEST VIRGINIA PANHANDLE

CITY           SKY/WX    TMP DP  RH WIND       PRES   REMARKS
MARTINSBURG    SUNNY     41  21  44 CALM      30.28F
PETERSBURG*    SUNNY     43  26  51 CALM      30.24F

$$

VAZ036>039-050-212000-
CENTRAL FOOTHILLS

CITY           SKY/WX    TMP DP  RH WIND       PRES   REMARKS
CHARLOTTESVILL SUNNY     43  27  53 CALM      30.26F
CULPEPER*      SUNNY     45  27  49 CALM      30.29F
ORANGE*        SUNNY     43  28  56 CALM      30.29F
GORDONSVILLE*  FAIR      42  27  55 CALM      30.27F
WARRENTON*     FAIR      44  32  63 CALM      30.28F

$$

VAZ055>057-212000-
NORTH AND CENTRAL PIEDMONT

CITY           SKY/WX    TMP DP  RH WIND       PRES   REMARKS
FREDERICKSBRG* SUNNY     44  27  51 CALM      30.29F
STAFFORD*      SUNNY     44  25  48 E3        30.33F

$$

NCZ024-NYZ072-PAZ021-071-VAZ022-071-212000-
OTHER REGIONAL OBSERVATIONS

CITY           SKY/WX    TMP DP  RH WIND       PRES   REMARKS
NEW YORK CITY  CLOUDY    34  26  72 NW5       30.30F
PHILADELPHIA   MOSUNNY   39  22  50 N9        30.31S
PITTSBURGH     CLOUDY    32  21  64 CALM      30.25F
ROANOKE        PTSUNNY   44  29  55 CALM      30.22F
RICHMOND       SUNNY     45  25  45 CALM      30.28F
RALEIGH        MOSUNNY   49  34  56 E6        30.24F

$$

ANZ530>537-212000-
MARINE OBSERVATIONS

STATION/POSITION TIME  TEMP    WIND        PRES
                       AIR SEA DIR/SP/G
                 (UTC) (F)     (DEG/KT/KT) (MB)
THOMAS PT LIGHT  1900   38 41   10/  6/  7 1027.1F
BALT KEY BRIDGE  1900   38     230/  3/  4 1026.2F
COVE POINT       1900   36      40/  6/  7 1026.2S
LEWISETTA        1900   38 41  100/  4/  4 1025.8F
SOLOMONS ISLAND  1900      43                N/A

$$



USA.gov is the U.S. government's official web portal to all federal, state and local government web resources and services.